Regional Weather Roundup
Issued by NWS

Home | Current Version | Previous Version | Text Only | Print | Product List | Glossary Off
Versions: 1 2 3 4 5 6 7 8 9 10 11 12 13 14 15 16 17 18 19 20 21 22 23 24 25 26 27 28 29 30 31 32 33 34 35 36 37 38 39 40 41 42 43 44 45 46 47 48 49 50

000
ASUS43 KMPX 250101
RWRMN
WEATHER ROUNDUP FOR MINNESOTA
NATIONAL WEATHER SERVICE TWIN CITIES/CHANHASSEN MN
800 PM CDT THU APR 24 2014


NOTE: "FAIR" INDICATES FEW OR NO CLOUDS BELOW 12,000 FEET WITH NO
SIGNIFICANT WEATHER AND/OR OBSTRUCTIONS TO VISIBILITY. N/A MEANS
CURRENT SKY AND/OR WEATHER CONDITIONS ARE NOT AVAILABLE.

MNZ060>063-068>070-250200-
   Twin Cities Metro

CITY           SKY/WX    TMP DP  RH WIND       PRES   REMARKS
TWIN CITIES    CLOUDY    45  41  86 W7        29.70R
ST PAUL        CLOUDY    45  40  82 W7        29.71R
CRYSTAL        CLOUDY    45  39  79 W7        29.69R
BLAINE         CLOUDY    45  43  93 W9        29.69R
EDEN PRAIRIE   CLOUDY    46  40  79 W5        29.69R
LAKEVILLE      CLOUDY    45  39  81 W8        29.70R
SOUTH ST PAUL  CLOUDY    47  42  82 W3        29.70R
LAKE ELMO      CLOUDY    43  41  93 W8        29.70R
$$
MNZ001>005-007-008-013>017-022>024-027-028-250200-
   Northwest Minnesota

CITY           SKY/WX    TMP DP  RH WIND       PRES   REMARKS
BEMIDJI        LGT SNOW  32  32 100 CALM      29.70S
HALLOCK        LGT RAIN  36  34  93 E9        29.74S
ROSEAU         LGT SNOW  34  28  80 E7        29.75S WCI  28
WARROAD        LGT SNOW  32  28  86 NE6       29.76S VSB 3/4 WCI  26
THIEF RVR FALL CLOUDY    34  30  86 E6        29.72F WCI  29
CROOKSTON      MIX PCPN  39  37  93 E5        29.72R
FOSSTON        CLOUDY    34  34 100 CALM      29.70F
DETROIT LAKES  PTCLDY    37  37 100 S5        29.70F
MOORHEAD       MOCLDY    48  46  93 SE7       29.67F
PARK RAPIDS    CLOUDY    34  34 100 CALM      29.68F
$$
MNZ006-009>011-018-025>026-250200-
   North Central Minnesota

CITY           SKY/WX    TMP DP  RH WIND       PRES   REMARKS
BAUDETTE       LGT SNOW  33  32  96 E8        29.75F VSB 3/4 WCI  26
FLAG ISLAND    LGT SNOW  32  30  93 NE3       29.78S VSB 1
INTL FALLS     SNOW      33  31  92 E10       29.75F VSB 1/2 WCI  25
WASKISH        LGT SNOW  34  32  93 NE5       29.72F WCI  30
BIG FORK       CLOUDY    34  32  93 NE1       29.71F VSB 3/4
LONGVILLE      LGT SNOW  34  32  93 CALM      29.70S
GRAND RAPIDS   CLOUDY    34  30  86 CALM      29.70S VSB 1
CRANE LAKE     LGT SNOW  30  30 100 CALM      29.77F
ORR            MIX PCPN  32  30  93 E3        29.70F
COOK           LGT SNOW  32  32 100 E3        29.72F
$$
MNZ012-019>021-037-250200-
   Northeast Minnesota

CITY           SKY/WX    TMP DP  RH WIND       PRES   REMARKS
DULUTH         CLOUDY    33  30  88 E16       29.69F WCI  23
ELY            FLURRIES  34  30  86 E13       29.73F WCI  25
HIBBING        LGT SNOW  34  32  92 E7        29.69F FOG     WCI  28
EVELETH        MIX PCPN  32  32 100 E7        29.71F WCI  26
DULUTH HARBOR  MIX PCPN  34  30  86 NE17      29.73F WCI  23
TWO HARBORS    LGT SNOW  32  27  80 NE16G23   29.71F WCI  21
SILVER BAY     MIX PCPN  30  30 100 NE15      29.74F WCI  19
GRAND MARAIS     N/A     33  31  92 NE18G29   29.85S WCI  22
G MARAIS ARPRT LGT SNOW  30  27  86 E16G25    29.80F WCI  19
$$
MNZ029>031-032-039>041-046>048-054>057-064-250200-
   West Central Minnesota

CITY           SKY/WX    TMP DP  RH WIND       PRES   REMARKS
FERGUS FALLS   RAIN      43  39  87 NW16G45   29.71R
WHEATON        MOCLDY    50  45  81 NW5       29.72R
MORRIS         MOCLDY    48  43  81 CALM      29.69F
ALEXANDRIA     PTCLDY    45  40  82 NE6       29.69F
ELBOW LAKE     CLOUDY    46  41  84 NW3       29.69R
WADENA         CLOUDY    39  36  87 CALM      29.70R
GLENWOOD       DRIZZLE   46  43  87 W3        29.69F
APPLETON       PTCLDY    52  43  71 N6        29.71R
BENSON         PTCLDY    48  43  81 N8        29.71R
ORTONVILLE     PTCLDY    48  41  76 NE8       29.71R
MADISON        PTCLDY    54  45  71 NE6       29.71R
WILLMAR        FAIR      50  43  76 CALM      29.71F
$$
MNZ033>034-036-042>043-049>051-058-059-250200-
   Central Minnesota

CITY           SKY/WX    TMP DP  RH WIND       PRES   REMARKS
ST CLOUD       CLOUDY    44  38  79 NW6       29.70S
SAUK CENTRE    CLOUDY    43  39  85 NW5       29.71R
PAYNESVILLE    CLOUDY    46  41  83 CALM      29.72R
AITKIN         CLOUDY    36  30  80 CALM      29.69S
PINE RIVER     FLURRIES  34  34 100 CALM      29.75R
BRAINERD       CLOUDY    40  33  76 CALM      29.71S
STAPLES        CLOUDY    36  36 100 CALM      29.70S
LONG PRAIRIE   FAIR      41  37  87 CALM      29.71R
LITTLE FALLS   CLOUDY    37  36  93 CALM      29.71S
LITCHFIELD     MOCLDY    48  43  81 N5        29.71R
BUFFALO        CLOUDY    44  39  82 NW6       29.71R
MAPLE LAKE     MOCLDY    44  40  87 NW5       29.71R
$$
MNZ037-044-045-052-053-250200-
   East Central Minnesota

CITY           SKY/WX    TMP DP  RH WIND       PRES   REMARKS
PRINCETON      CLOUDY    43  39  87 W5        29.71R
MORA           CLOUDY    34  32  93 CALM      29.72R
CAMBRIDGE      CLOUDY    45  37  76 W6        29.68S
RUSH CITY      CLOUDY    37  36  95 CALM      29.70R
MOOSE LAKE     MIX PCPN  32  32 100 NE3       29.68S
HINCKLEY       CLOUDY    36  36 100 NW3       29.69S FOG
CLOQUET        LGT SNOW  34  32  93 E7        29.68S WCI  28
MCGREGOR       CLOUDY    32  32 100 CALM      29.71R
$$
MNZ071>073-080-081-089-090-097-098-250200-
   Southwest Minnesota

CITY           SKY/WX    TMP DP  RH WIND       PRES   REMARKS
MONTEVIDEO     PTCLDY    54  45  71 N7        29.72R
GRANITE FALLS  MOCLDY    52  43  71 N3        29.72F
CANBY          PTCLDY    51  45  79 CALM      29.72S
MARSHALL       PTCLDY    52  43  71 N12       29.73R THUNDER
REDWOOD FALLS  LGT RAIN  51  43  74 NW8       29.72R
OLIVIA         PTCLDY    50  43  76 W5        29.70S
PIPESTONE      CLEAR     55  39  54 CALM      29.70S
WINDOM         CLEAR     52  43  71 CALM      29.72S
WORTHINGTON    PTCLDY    52  39  62 NE7       29.74S
JACKSON        PTCLDY    50  43  76 VRB3      29.73R
TRACY          MOCLDY    53  45  75 NE7       29.73R
SLAYTON        PTCLDY    51  42  71 CALM      29.72S
$$
MNZ065>067-074>077-082>085-091>093-250200-
   South Central Minnesota

CITY           SKY/WX    TMP DP  RH WIND       PRES   REMARKS
MANKATO        PTCLDY    48  41  76 NW7       29.71S
NEW ULM        CLEAR     50  45  81 NW7       29.71R
ST JAMES       PTCLDY    52  45  76 CALM      29.73R
FAIRMONT       PTCLDY    52  41  66 NW8       29.74R
GLENCOE        CLEAR     47  40  77 NW5       29.70R
FARIBAULT      CLOUDY    48  41  76 W6        29.71R
OWATONNA       CLOUDY    46  43  87 W5        29.71R
WASECA         CLOUDY    45  37  76 NW7       29.73R
ALBERT LEA     CLOUDY    46  43  87 NW5       29.71R
$$
MNZ078>079-086>088-094>096-250200-
   Southeast Minnesota

CITY           SKY/WX    TMP DP  RH WIND       PRES   REMARKS
ROCHESTER      CLOUDY    45  40  82 NW10      29.70R
RED WING       CLOUDY    45  43  93 W6        29.69R FOG
STANTON        CLOUDY    47  41  81 W9        29.70R
DODGE CENTER   CLOUDY    48  41  76 NW14      29.70R
WINONA         CLOUDY    43  43 100 CALM      29.69R FOG
AUSTIN         CLOUDY    46  41  81 NW8       29.70R
PRESTON        CLOUDY    45  42  87 NW9       29.69R
$$
ABBREVIATIONS USED IN REMARKS
   TC - TEMPERATURES IN CELSIUS
  WCI - WIND CHILL INDEX
   HX - HEAT INDEX
  VSB - VISIBILITY
$$


USA.gov is the U.S. government's official web portal to all federal, state and local government web resources and services.